Weather reports worldwide

Advertisment
Gibraltar, United Kingdom (8495): temperature & dewpoint: 14.10.2019 22:00:00 - 20.10.2019 22:00:00 (CEST)Gibraltar, United Kingdom (8495): wind speed & gusts: 14.10.2019 22:00:00 - 20.10.2019 22:00:00 (CEST)Gibraltar, United Kingdom (8495): wind direction: 14.10.2019 22:00:00 - 20.10.2019 22:00:00 (CEST)Gibraltar, United Kingdom (8495): reduced air pressure: 14.10.2019 22:00:00 - 20.10.2019 22:00:00 (CEST)Gibraltar, United Kingdom (8495): visibility: 14.10.2019 22:00:00 - 20.10.2019 22:00:00 (CEST)
Date & Time tt [°C] td [°C] ff [km/h] ff [kn] fx [km/h] fx [kn] dd ppp [hPa] vv [km]
20.10.2019 22:00:00 17,3 11,2 16 9 - - W 1016,3 50
20.10.2019 21:00:00 18,0 11,1 18 10 - - W 1016,2 50
20.10.2019 20:00:00 18,6 10,4 21 11 - - W 1015,6 50
20.10.2019 19:00:00 19,9 9,1 22 12 - - WSW 1014,8 50
20.10.2019 18:00:00 19,9 11,2 24 13 - - W 1014,7 50
20.10.2019 17:00:00 20,3 10,0 18 10 - - W 1014,4 50
20.10.2019 16:00:00 20,3 11,2 18 10 - - W 1014,2 50
20.10.2019 15:00:00 20,0 11,1 18 10 - - W 1014,3 50
20.10.2019 14:00:00 19,0 11,2 21 11 - - W 1014,8 50
20.10.2019 13:00:00 18,5 12,1 16 9 - - W 1014,9 50
20.10.2019 12:00:00 17,7 12,3 15 8 - - WNW 1014,7 40
20.10.2019 11:00:00 16,7 12,7 21 11 - - W 1014,5 40
20.10.2019 10:00:00 16,2 13,4 15 8 - - W 1013,8 50
20.10.2019 09:00:00 15,7 12,8 13 7 - - WSW 1012,9 40
20.10.2019 08:00:00 15,2 12,8 11 6 - - SSW 1012,3 30
20.10.2019 07:00:00 15,2 12,2 16 9 - - SW 1012,1 8
20.10.2019 06:00:00 16,0 12,7 22 12 - - W 1011,3 22
20.10.2019 05:00:00 17,0 13,1 22 12 - - W 1010,7 19
20.10.2019 04:00:00 17,3 13,3 31 17 46 25 W 1011,0 20
20.10.2019 03:00:00 17,7 13,8 28 15 46 25 W 1010,8 20
20.10.2019 02:00:00 18,5 16,9 21 11 - - SW 1010,9 5
20.10.2019 01:00:00 19,1 16,6 31 17 48 26 W 1010,4 17
20.10.2019 00:00:00 20,2 17,9 37 20 57 31 SW 1010,2 16
19.10.2019 23:00:00 20,4 18,4 28 15 - - SW 1010,1 14
19.10.2019 22:00:00 21,1 17,8 22 12 - - SW 1010,3 35
19.10.2019 21:00:00 21,2 16,8 18 10 - - SW 1010,6 40
19.10.2019 20:00:00 21,7 16,5 18 10 - - WSW 1010,2 40
19.10.2019 19:00:00 22,2 16,6 22 12 - - WSW 1010,3 40
19.10.2019 18:00:00 22,2 16,8 22 12 - - WSW 1010,8 40
19.10.2019 17:00:00 22,5 17,1 26 14 - - WSW 1011,4 40
19.10.2019 16:00:00 22,1 17,0 18 10 - - WSW 1011,8 35
19.10.2019 15:00:00 22,6 17,1 21 11 - - SW 1012,5 40
19.10.2019 14:00:00 22,1 17,4 16 9 - - SSW 1013,2 40
19.10.2019 13:00:00 21,1 17,6 18 10 - - SSW 1013,9 50
19.10.2019 12:00:00 21,3 16,5 16 9 - - S 1014,1 40
19.10.2019 11:00:00 21,3 14,6 8 4 - - WSW 1014,1 50
19.10.2019 10:00:00 19,1 16,1 11 6 - - W 1014,1 40
19.10.2019 09:00:00 18,9 16,0 13 7 - - W 1013,9 40
19.10.2019 08:00:00 19,1 15,4 11 6 - - NW 1014,0 30
19.10.2019 07:00:00 19,5 15,7 15 8 - - WNW 1013,8 30
19.10.2019 06:00:00 19,5 16,3 11 6 - - NW 1013,8 30
19.10.2019 05:00:00 19,6 16,9 26 14 - - WNW 1014,1 19
19.10.2019 04:00:00 19,6 17,4 24 13 - - W 1014,6 18
19.10.2019 03:00:00 19,8 17,4 28 15 - - W 1015,1 17
19.10.2019 02:00:00 19,9 17,5 24 13 - - W 1015,5 15
19.10.2019 01:00:00 20,0 17,5 22 12 - - W 1016,2 17
19.10.2019 00:00:00 19,8 17,2 26 14 - - W 1016,5 16
18.10.2019 23:00:00 20,2 16,9 18 10 - - WSW 1016,5 60
18.10.2019 22:00:00 21,1 16,9 22 12 - - W 1016,2 60
18.10.2019 21:00:00 21,1 17,1 28 15 - - W 1016,0 60
18.10.2019 20:00:00 21,6 17,0 24 13 - - W 1015,6 60
18.10.2019 19:00:00 24,8 17,0 15 8 - - SW 1015,6 60
18.10.2019 18:00:00 25,8 16,6 15 8 - - SW 1015,8 60
18.10.2019 17:00:00 25,7 16,4 18 10 - - W 1016,3 60
18.10.2019 16:00:00 25,4 16,8 15 8 - - SW 1016,7 60
18.10.2019 15:00:00 25,5 16,6 15 8 - - SW 1017,4 60
18.10.2019 14:00:00 24,7 16,4 18 10 - - WSW 1018,3 60
18.10.2019 13:00:00 23,0 16,5 21 11 - - W 1019,0 50
18.10.2019 12:00:00 22,4 16,3 18 10 - - WSW 1019,2 50
18.10.2019 11:00:00 20,9 16,2 15 8 - - SW 1019,2 50
18.10.2019 10:00:00 19,1 16,1 13 7 - - SW 1018,9 40
18.10.2019 09:00:00 18,5 16,2 16 9 - - WSW 1018,4 40
18.10.2019 08:00:00 18,3 16,3 16 9 - - W 1018,4 30
18.10.2019 07:00:00 18,8 15,8 18 10 - - WSW 1018,2 25
18.10.2019 06:00:00 18,9 15,5 18 10 - - WSW 1018,1 18
18.10.2019 05:00:00 18,9 15,7 21 11 - - WSW 1018,5 18
18.10.2019 04:00:00 18,7 15,7 18 10 - - WSW 1019,1 17
18.10.2019 03:00:00 18,7 15,9 24 13 - - W 1019,3 17
18.10.2019 02:00:00 18,6 15,8 28 15 - - W 1019,4 17
18.10.2019 01:00:00 18,7 15,6 29 16 - - W 1019,9 18
18.10.2019 00:00:00 19,1 15,0 24 13 - - WSW 1020,0 21
17.10.2019 23:00:00 19,1 15,2 29 16 - - W 1019,7 18
17.10.2019 22:00:00 19,5 14,1 24 13 - - W 1019,5 19
17.10.2019 21:00:00 20,4 14,0 18 10 - - W 1019,0 60
17.10.2019 20:00:00 21,8 13,5 16 9 - - SW 1018,4 60
17.10.2019 19:00:00 22,1 14,0 22 12 - - SSW 1018,3 60
17.10.2019 18:00:00 23,2 13,4 16 9 - - SW 1018,1 60
17.10.2019 17:00:00 23,5 14,3 16 9 - - SSW 1018,2 60
17.10.2019 16:00:00 23,6 12,5 21 11 - - SSW 1018,7 60
17.10.2019 15:00:00 23,1 12,9 15 8 - - SSW 1019,3 50
17.10.2019 14:00:00 22,6 12,1 13 7 - - SW 1020,3 50
17.10.2019 13:00:00 21,9 12,9 24 13 - - W 1020,8 50
17.10.2019 12:00:00 20,0 13,5 21 11 - - W 1021,1 50
17.10.2019 11:00:00 18,9 14,3 18 10 - - WSW 1020,9 50
17.10.2019 10:00:00 17,1 12,5 11 6 - - WSW 1020,6 50
17.10.2019 09:00:00 16,5 9,8 15 8 - - WSW 1019,8 50
17.10.2019 08:00:00 16,5 8,7 11 6 - - WSW 1019,4 50
17.10.2019 07:00:00 16,4 8,5 11 6 - - WSW 1019,1 50
17.10.2019 06:00:00 15,8 10,5 13 7 - - WSW 1018,9 16
17.10.2019 05:00:00 16,5 10,8 11 6 - - WSW 1018,9 17
17.10.2019 04:00:00 17,3 10,1 15 8 - - WSW 1019,3 19
17.10.2019 03:00:00 17,0 9,5 15 8 - - WSW 1019,4 20
17.10.2019 02:00:00 17,1 10,7 15 8 - - W 1019,5 19
17.10.2019 01:00:00 17,7 10,8 16 9 - - W 1019,9 20
17.10.2019 00:00:00 19,2 10,1 15 8 - - SW 1019,9 18
16.10.2019 23:00:00 19,0 9,2 13 7 - - WSW 1019,7 18
16.10.2019 22:00:00 19,7 10,1 13 7 - - WSW 1019,3 16
16.10.2019 21:00:00 20,0 8,2 16 9 - - SSW 1018,8 60
16.10.2019 20:00:00 20,3 6,5 15 8 - - S 1018,4 60
16.10.2019 19:00:00 21,1 4,3 18 10 - - SSW 1018,4 60
16.10.2019 18:00:00 21,7 6,3 11 6 - - SSW 1018,5 60
16.10.2019 17:00:00 22,7 10,1 9 5 - - ESE 1018,9 60
16.10.2019 16:00:00 20,7 12,5 11 6 - - ESE 1019,5 60
16.10.2019 15:00:00 19,4 12,1 11 6 - - E 1020,3 60
16.10.2019 14:00:00 20,9 5,6 11 6 - - ESE 1021,2 60
16.10.2019 13:00:00 20,4 8,1 8 4 - - E 1021,8 60
16.10.2019 12:00:00 18,3 8,8 4 2 - - W 1021,8 70
16.10.2019 11:00:00 15,5 6,7 8 4 - - W 1021,8 70
16.10.2019 10:00:00 13,9 7,1 9 5 - - W 1021,4 70
16.10.2019 09:00:00 13,7 6,9 11 6 - - W 1020,9 70
16.10.2019 08:00:00 14,3 6,2 11 6 - - WSW 1020,6 60
16.10.2019 07:00:00 14,8 5,1 9 5 - - W 1020,5 50
16.10.2019 06:00:00 15,3 6,9 13 7 - - WSW 1020,5 23
16.10.2019 05:00:00 15,5 7,2 11 6 - - WSW 1020,4 22
16.10.2019 04:00:00 15,5 6,2 9 5 - - W 1020,9 22
16.10.2019 03:00:00 16,3 7,7 13 7 - - W 1021,5 21
16.10.2019 02:00:00 16,6 7,2 15 8 - - WSW 1021,4 21
16.10.2019 01:00:00 17,0 7,8 13 7 - - WSW 1021,7 10
16.10.2019 00:00:00 18,1 6,5 13 7 - - WSW 1021,5 20
15.10.2019 23:00:00 18,8 4,9 15 8 - - WSW 1021,1 19
15.10.2019 22:00:00 19,6 4,0 16 9 - - WSW 1020,7 20
15.10.2019 21:00:00 20,7 5,1 18 10 - - SW 1020,3 19
15.10.2019 20:00:00 21,2 8,5 16 9 - - W 1019,9 60
15.10.2019 19:00:00 22,0 8,8 16 9 - - W 1019,7 60
15.10.2019 18:00:00 22,8 7,8 16 9 - - W 1019,5 60
15.10.2019 17:00:00 23,5 7,9 16 9 - - SW 1019,6 60
15.10.2019 16:00:00 22,4 8,5 15 8 - - SSW 1020,1 60
15.10.2019 15:00:00 22,6 3,9 13 7 - - WSW 1020,7 60
15.10.2019 14:00:00 22,1 4,6 13 7 - - WSW 1021,5 60
15.10.2019 13:00:00 20,7 4,1 18 10 - - W 1022,0 50
15.10.2019 12:00:00 19,7 7,6 21 11 - - W 1022,1 50
15.10.2019 11:00:00 18,0 10,7 13 7 - - W 1022,1 50
15.10.2019 10:00:00 15,8 10,9 9 5 - - WNW 1021,5 50
15.10.2019 09:00:00 15,2 11,4 9 5 - - WNW 1021,0 40
15.10.2019 08:00:00 15,9 12,4 9 5 - - W 1021,0 30
15.10.2019 07:00:00 16,8 12,5 11 6 - - W 1020,9 30
15.10.2019 06:00:00 16,5 12,6 15 8 - - WNW 1020,9 18
15.10.2019 05:00:00 16,9 13,0 24 13 - - W 1020,8 18
15.10.2019 04:00:00 17,7 14,0 26 14 - - W 1020,8 17
15.10.2019 03:00:00 18,3 14,5 28 15 - - W 1020,6 17
15.10.2019 02:00:00 18,8 15,4 22 12 - - W 1020,8 18
15.10.2019 01:00:00 18,9 15,6 18 10 - - W 1020,7 17
15.10.2019 00:00:00 18,5 15,5 15 8 - - WSW 1020,9 18
14.10.2019 23:00:00 20,3 15,0 22 12 - - W 1020,5 18
14.10.2019 22:00:00 20,2 15,1 18 10 - - WSW 1020,1 70

tt = temperature
td = dewpoint
ff = wind speed
fx = gusts
dd = wind direction
ppp = reduced air pressure
vv = visibility

Next stations